sat.trackr.live / text

‹ back to catalog

STARLINK-6258

NORAD 56413 · 2023-061AR

PAYLOAD ACTIVE UNKNOWN

§ Identity

Operator
Country
US
Launch date
2023-05-04
Launch site
AFETR
Launch vehicle
Mass (kg)
RCS (m²)

Purposes: comms

External: N2YO · Heavens-Above · Gunter

§ Orbital elements

Epoch: 2026-09-20T10:30:38.710656Z

Period
94.27 min
Inclination
43.0029°
Eccentricity
0.0000336
Mean motion
15.27583582 rev/d
Perigee alt
482.8 km
Apogee alt
483.3 km
Semi-major
6,861.2 km
B*
3.6850e-5
RAAN
167.6360°
Arg perigee
234.0018°
Mean anomaly
126.0802°
Rev number
18,665

§ Raw data

STARLINK-62581 56413U 23061AR  26263.43794804  .00000753  00000+0  36850-4 0  99992 56413  43.0029 167.6360 0000336 234.0018 126.0802 15.27583582186659

JSON: /api/v1/satellites/56413 · /tle

For live sub-satellite position, see the globe view (requires WebGL).

§ Visibility from observer

Set your observer location to see the next 7 days of passes ≥ 10°. The values pass through the URL so the page stays shareable.

No JS? Fill the form by hand. The geolocation button needs JavaScript.